Weather History for Boise, ID

Change the Weather History Date:

Monday, March 24, 2014

  Actual Average Record
Temperature  
Mean Temperature 50 °F 46 °F  
Max Temperature 66 °F 57 °F 75 °F (1878)
Min Temperature 33 °F 36 °F 14 °F (1965)
Degree Days  
Heating Degree Days 15 19  
Month to date heating degree days 463 512  
Since 1 July heating degree days 4803 4671  
Cooling Degree Days 0 0  
Month to date cooling degree days 0 0  
Year to date cooling degree days 0 0  
Moisture  
Dew Point 24 °F    
Average Humidity 43    
Maximum Humidity 69    
Minimum Humidity 16    
Precipitation  
Precipitation 0.00 in 0.04 in 0.78 in (1897)
Month to date precipitation 1.55 1.06  
Year to date precipitation 4.56 3.29  
Snow  
Snow 0.00 in 0.00 in 1.00 in (1977)
Month to date snowfall T 1.1  
Since 1 July snowfall 14.4 18.7  
Snow Depth 0.00 in    
Sea Level Pressure  
Sea Level Pressure 30.18 in    
Wind  
Wind Speed 5 mph (SE)    
Max Wind Speed 13 mph    
Max Gust Speed 16 mph    
Visibility 10 miles    
Events      
T = Trace of Precipitation, MM = Missing Value Source: NWS Daily Summary

Daily Weather History Graph

Daily Weather History Graph

Search for Another Location

Airport:

Trip Planner

Search our weather history database for the weather conditions in past years. The results will help you decide how hot, cold, wet, or windy it might be!

Date:

Astronomy

Mar. 24, 2014 Rise Set
Actual Time 7:40 AM MDT 8:02 PM MDT
Civil Twilight 7:12 AM MDT 8:30 PM MDT
Nautical Twilight 6:38 AM MDT 9:04 PM MDT
Astronomical Twilight 6:03 AM MDT 9:39 PM MDT
Moon 3:24 AM MDT (3/24) 1:22 PM MDT (3/24)
Length of Visible Light 13h 18m
Length of Day
12h 21m
Last Quarter, 42% of the Moon is Illuminated
Mar 24
Last Quarter
Mar 30
New
Apr 7
First Quarter
Apr 15
Full
Apr 22
Last Quarter

Hourly Weather History & Observations

Time (MDT) Temp. Windchill Dew Point Humidity Pressure Visibility Wind Dir Wind Speed Gust Speed Precip Events Conditions
12:53 AM 37.9 °F 32.1 °F 25.0 °F 60% 30.22 in 10.0 mi SSE 8.1 mph - N/A   Clear
1:53 AM 37.9 °F - 24.1 °F 57% 30.22 in 10.0 mi Calm Calm - N/A   Clear
2:53 AM 37.0 °F 32.4 °F 24.1 °F 59% 30.23 in 10.0 mi SE 5.8 mph - N/A   Clear
3:53 AM 35.1 °F 32.2 °F 24.1 °F 64% 30.23 in 10.0 mi SE 3.5 mph - N/A   Clear
4:53 AM 34.0 °F 28.0 °F 24.1 °F 67% 30.23 in 10.0 mi South 6.9 mph - N/A   Clear
5:53 AM 37.0 °F 30.4 °F 23.0 °F 57% 30.23 in 10.0 mi SSE 9.2 mph - N/A   Clear
6:53 AM 36.0 °F 29.6 °F 23.0 °F 59% 30.25 in 10.0 mi SE 8.1 mph - N/A   Clear
7:53 AM 33.1 °F 26.9 °F 24.1 °F 70% 30.27 in 10.0 mi SE 6.9 mph - N/A   Clear
8:53 AM 37.9 °F 32.1 °F 26.1 °F 62% 30.27 in 10.0 mi SE 8.1 mph - N/A   Clear
9:53 AM 45.0 °F 41.8 °F 26.1 °F 48% 30.27 in 10.0 mi ESE 5.8 mph - N/A   Clear
10:53 AM 50.0 °F - 26.1 °F 39% 30.27 in 10.0 mi ESE 4.6 mph - N/A   Clear
11:53 AM 54.0 °F - 26.1 °F 34% 30.26 in 10.0 mi Calm Calm - N/A   Clear
12:53 PM 57.9 °F - 25.0 °F 28% 30.25 in 10.0 mi NE 3.5 mph - N/A   Clear
1:53 PM 59.0 °F - 24.1 °F 26% 30.22 in 10.0 mi Calm Calm - N/A   Clear
2:53 PM 61.0 °F - 21.9 °F 22% 30.20 in 10.0 mi Calm Calm - N/A   Clear
3:53 PM 63.0 °F - 21.0 °F 20% 30.17 in 10.0 mi North 5.8 mph - N/A   Clear
4:53 PM 64.0 °F - 18.0 °F 17% 30.14 in 10.0 mi Calm Calm - N/A   Clear
5:53 PM 64.0 °F - 19.0 °F 18% 30.10 in 10.0 mi South 3.5 mph - N/A   Clear
6:53 PM 63.0 °F - 21.0 °F 20% 30.08 in 10.0 mi SSW 5.8 mph - N/A   Clear
7:53 PM 59.0 °F - 25.0 °F 27% 30.08 in 10.0 mi Calm Calm - N/A   Clear
8:53 PM 54.0 °F - 28.0 °F 37% 30.07 in 10.0 mi ESE 4.6 mph - N/A   Clear
9:53 PM 51.1 °F - 27.0 °F 39% 30.05 in 10.0 mi ESE 9.2 mph - N/A   Clear
10:53 PM 50.0 °F - 23.0 °F 35% 30.03 in 10.0 mi SE 11.5 mph - N/A   Clear
11:53 PM 48.9 °F - 24.1 °F 38% 30.02 in 10.0 mi SE 10.4 mph - N/A   Clear